When you browse on this site, cookies collect data to enhance your experience and personalize the content and advertising you see.
Visit our Privacy Policy to learn more. By continuing to use the site, you agree to this use of cookies and data.
  • în România
  • Lista ţărilor
  • Pe 7 zile
  • Temperatura apei
  • Meteo pe hartă
  • Widget-uri
  • user-avatar
    Intrare

    Meteo pe oră la Stafford

    Astăzi, 5 Iunie, Vineri

    Timp Temperatura Precipitaţii Vânt Presiune Umiditate
    00:00 +7°C° 0 mm 4 m/s 740 mmHg 92%
    01:00 +6°C° 0 mm 5 m/s 739 mmHg 91%
    02:00 +6°C° 0 mm 5 m/s 739 mmHg 91%
    03:00 +5°C° 0 mm 6 m/s 739 mmHg 91%
    04:00 +5°C° 0.1 mm 6 m/s 739 mmHg 90%
    05:00 +7°C° 0.1 mm 6 m/s 739 mmHg 89%
    06:00 +7°C° 0.1 mm 6 m/s 739 mmHg 88%
    07:00 +8°C° 0.5 mm 6 m/s 739 mmHg 87%
    08:00 +8°C° 0.5 mm 6 m/s 739 mmHg 86%
    09:00 +8°C° 0.5 mm 6 m/s 739 mmHg 85%
    10:00 +9°C° 0.2 mm 7 m/s 739 mmHg 75%
    11:00 +10°C° 0.2 mm 8 m/s 739 mmHg 65%
    12:00 +12°C° 0.2 mm 9 m/s 739 mmHg 56%
    13:00 +12°C° 0 mm 10 m/s 739 mmHg 54%
    14:00 +12°C° 0 mm 10 m/s 739 mmHg 53%
    15:00 +12°C° 0 mm 10 m/s 738 mmHg 51%
    16:00 +11°C° 0.1 mm 9 m/s 738 mmHg 54%
    17:00 +10°C° 0.1 mm 9 m/s 738 mmHg 56%
    18:00 +10°C° 0.1 mm 9 m/s 738 mmHg 59%
    19:00 +7°C° 0 mm 8 m/s 739 mmHg 63%
    20:00 +6°C° 0 mm 7 m/s 739 mmHg 66%
    21:00 +5°C° 0 mm 6 m/s 739 mmHg 70%
    22:00 +5°C° 0 mm 7 m/s 739 mmHg 71%
    23:00 +4°C° 0 mm 7 m/s 739 mmHg 72%

    Mâine, 6 Iunie, Sâmbătă

    Timp Temperatura Precipitaţii Vânt Presiune Umiditate
    00:00 +4°C° 0 mm 8 m/s 739 mmHg 73%
    01:00 +4°C° 0 mm 8 m/s 738 mmHg 75%
    02:00 +4°C° 0 mm 8 m/s 738 mmHg 77%
    03:00 +3°C° 0 mm 9 m/s 738 mmHg 79%
    04:00 +5°C° 0.6 mm 9 m/s 737 mmHg 83%
    05:00 +5°C° 0.6 mm 9 m/s 737 mmHg 87%
    06:00 +6°C° 0.6 mm 9 m/s 736 mmHg 92%
    07:00 +7°C° 0.7 mm 8 m/s 736 mmHg 91%
    08:00 +7°C° 0.7 mm 8 m/s 736 mmHg 90%
    09:00 +9°C° 0.7 mm 7 m/s 736 mmHg 90%
    10:00 +11°C° 0.3 mm 7 m/s 737 mmHg 80%
    11:00 +12°C° 0.3 mm 8 m/s 737 mmHg 71%
    12:00 +15°C° 0.3 mm 8 m/s 737 mmHg 62%
    13:00 +15°C° 0.4 mm 8 m/s 738 mmHg 64%
    14:00 +15°C° 0.4 mm 8 m/s 738 mmHg 67%
    15:00 +14°C° 0.4 mm 7 m/s 739 mmHg 69%
    16:00 +14°C° 0.5 mm 7 m/s 739 mmHg 72%
    17:00 +14°C° 0.5 mm 6 m/s 740 mmHg 75%
    18:00 +13°C° 0.5 mm 5 m/s 740 mmHg 78%
    19:00 +12°C° 0.1 mm 5 m/s 741 mmHg 82%
    20:00 +11°C° 0.1 mm 4 m/s 742 mmHg 85%
    21:00 +8°C° 0.1 mm 4 m/s 743 mmHg 89%
    22:00 +8°C° 0 mm 4 m/s 743 mmHg 91%
    23:00 +8°C° 0 mm 4 m/s 743 mmHg 93%

    Poimâine, 7 Iunie, Duminică

    Timp Temperatura Precipitaţii Vânt Presiune Umiditate
    00:00 +8°C° 0 mm 4 m/s 743 mmHg 95%
    01:00 +8°C° 0 mm 3 m/s 744 mmHg 95%
    02:00 +8°C° 0 mm 3 m/s 744 mmHg 96%
    03:00 +8°C° 0 mm 3 m/s 744 mmHg 96%
    04:00 +9°C° 0 mm 3 m/s 745 mmHg 95%
    05:00 +9°C° 0 mm 3 m/s 745 mmHg 93%
    06:00 +10°C° 0 mm 4 m/s 745 mmHg 92%
    07:00 +11°C° 0.1 mm 4 m/s 746 mmHg 91%
    08:00 +11°C° 0.1 mm 4 m/s 746 mmHg 90%
    09:00 +12°C° 0.1 mm 4 m/s 747 mmHg 88%
    10:00 +13°C° 0.4 mm 4 m/s 747 mmHg 85%
    11:00 +14°C° 0.4 mm 4 m/s 747 mmHg 82%
    12:00 +14°C° 0.4 mm 5 m/s 748 mmHg 79%
    13:00 +14°C° 0.3 mm 5 m/s 748 mmHg 78%
    14:00 +14°C° 0.3 mm 5 m/s 749 mmHg 78%
    15:00 +14°C° 0.3 mm 5 m/s 749 mmHg 77%
    16:00 +14°C° 0.1 mm 5 m/s 749 mmHg 77%
    17:00 +14°C° 0.1 mm 4 m/s 750 mmHg 77%
    18:00 +13°C° 0.1 mm 4 m/s 750 mmHg 77%
    19:00 +12°C° 0 mm 3 m/s 751 mmHg 81%
    20:00 +10°C° 0 mm 3 m/s 752 mmHg 84%
    21:00 +9°C° 0 mm 2 m/s 752 mmHg 87%
    22:00 +9°C° 0 mm 2 m/s 752 mmHg 86%
    23:00 +10°C° 0 mm 1 m/s 753 mmHg 85%

    8 Iunie, Luni

    Timp Temperatura Precipitaţii Vânt Presiune Umiditate
    00:00 +9°C° 0 mm 1 m/s 753 mmHg 84%
    01:00 +9°C° 0 mm 1 m/s 753 mmHg 83%
    02:00 +9°C° 0 mm 1 m/s 753 mmHg 82%
    03:00 +9°C° 0 mm 1 m/s 754 mmHg 81%
    04:00 +9°C° 0 mm 1 m/s 754 mmHg 81%
    05:00 +8°C° 0 mm 2 m/s 754 mmHg 80%
    06:00 +8°C° 0 mm 2 m/s 754 mmHg 79%
    07:00 +9°C° 0 mm 2 m/s 755 mmHg 76%
    08:00 +10°C° 0 mm 2 m/s 755 mmHg 72%
    09:00 +12°C° 0 mm 2 m/s 755 mmHg 69%
    10:00 +13°C° 0 mm 2 m/s 755 mmHg 65%
    11:00 +14°C° 0 mm 2 m/s 756 mmHg 61%
    12:00 +15°C° 0 mm 2 m/s 756 mmHg 58%
    13:00 +14°C° 0 mm 3 m/s 756 mmHg 58%
    14:00 +14°C° 0 mm 3 m/s 756 mmHg 58%
    15:00 +14°C° 0 mm 3 m/s 756 mmHg 58%
    16:00 +14°C° 0 mm 3 m/s 756 mmHg 60%
    17:00 +13°C° 0 mm 3 m/s 756 mmHg 63%
    18:00 +13°C° 0 mm 3 m/s 756 mmHg 66%
    19:00 +11°C° 0 mm 3 m/s 756 mmHg 70%
    20:00 +9°C° 0 mm 3 m/s 757 mmHg 74%
    21:00 +8°C° 0 mm 2 m/s 757 mmHg 78%
    22:00 +7°C° 0 mm 2 m/s 757 mmHg 80%
    23:00 +7°C° 0 mm 2 m/s 758 mmHg 81%

    9 Iunie, Marţi

    Timp Temperatura Precipitaţii Vânt Presiune Umiditate
    00:00 +8°C° 0 mm 1 m/s 758 mmHg 82%
    01:00 +7°C° 0 mm 1 m/s 758 mmHg 81%
    02:00 +7°C° 0 mm 1 m/s 758 mmHg 79%
    03:00 +7°C° 0 mm 1 m/s 758 mmHg 78%
    04:00 +8°C° 0 mm 1 m/s 758 mmHg 77%
    05:00 +8°C° 0 mm 1 m/s 758 mmHg 76%
    06:00 +9°C° 0 mm 1 m/s 758 mmHg 75%
    07:00 +10°C° 0 mm 1 m/s 758 mmHg 69%
    08:00 +10°C° 0 mm 2 m/s 759 mmHg 64%
    09:00 +13°C° 0 mm 2 m/s 759 mmHg 58%
    10:00 +13°C° 0 mm 2 m/s 759 mmHg 56%
    11:00 +14°C° 0 mm 2 m/s 759 mmHg 55%
    12:00 +15°C° 0 mm 2 m/s 759 mmHg 53%
    13:00 +15°C° 0 mm 2 m/s 758 mmHg 53%
    14:00 +16°C° 0 mm 1 m/s 758 mmHg 53%
    15:00 +16°C° 0 mm 1 m/s 758 mmHg 54%
    16:00 +16°C° 0 mm 1 m/s 758 mmHg 57%
    17:00 +15°C° 0 mm 1 m/s 758 mmHg 60%
    18:00 +15°C° 0 mm 1 m/s 759 mmHg 63%
    19:00 +14°C° 0 mm 2 m/s 759 mmHg 67%
    20:00 +12°C° 0 mm 2 m/s 759 mmHg 71%
    21:00 +10°C° 0 mm 2 m/s 759 mmHg 75%
    22:00 +9°C° 0 mm 2 m/s 760 mmHg 78%
    23:00 +9°C° 0 mm 2 m/s 760 mmHg 81%

    10 Iunie, Miercuri

    Timp Temperatura Precipitaţii Vânt Presiune Umiditate
    00:00 +9°C° 0 mm 1 m/s 760 mmHg 84%
    01:00 +8°C° 0 mm 1 m/s 760 mmHg 84%
    02:00 +8°C° 0 mm 1 m/s 760 mmHg 85%
    03:00 +8°C° 0 mm 1 m/s 760 mmHg 85%
    04:00 +9°C° 0 mm 1 m/s 760 mmHg 83%
    05:00 +10°C° 0 mm 1 m/s 760 mmHg 82%
    06:00 +9°C° 0 mm 0 m/s 760 mmHg 80%
    07:00 +12°C° 0 mm 1 m/s 760 mmHg 75%
    08:00 +14°C° 0 mm 1 m/s 760 mmHg 69%
    09:00 +16°C° 0 mm 1 m/s 761 mmHg 64%
    10:00 +16°C° 0 mm 1 m/s 760 mmHg 62%
    11:00 +16°C° 0 mm 0 m/s 760 mmHg 59%
    12:00 +17°C° 0 mm 0 m/s 760 mmHg 57%
    13:00 +17°C° 0 mm 0 m/s 760 mmHg 57%
    14:00 +19°C° 0 mm 1 m/s 760 mmHg 57%
    15:00 +19°C° 0 mm 1 m/s 760 mmHg 57%
    16:00 +19°C° 0 mm 1 m/s 760 mmHg 58%
    17:00 +19°C° 0 mm 1 m/s 760 mmHg 60%
    18:00 +19°C° 0 mm 1 m/s 760 mmHg 62%
    19:00 +16°C° 0 mm 1 m/s 760 mmHg 67%
    20:00 +14°C° 0 mm 1 m/s 760 mmHg 71%
    21:00 +12°C° 0 mm 2 m/s 761 mmHg 76%
    22:00 +11°C° 0 mm 1 m/s 760 mmHg 77%
    23:00 +10°C° 0 mm 1 m/s 760 mmHg 78%
    Arată mai mult